TimeCDT,TemperatureF,Dew PointF,Humidity,Sea Level PressureIn,VisibilityMPH,Wind Direction,Wind SpeedMPH,Gust SpeedMPH,PrecipitationIn,Events,Conditions,WindDirDegrees,DateUTC
12:53 AM,55.0,50.0,83,30.08,10.0,NNW,3.5,-,N/A,,Clear,340,2013-10-23 05:53:00
1:53 AM,53.1,51.1,93,30.08,10.0,NW,4.6,-,N/A,,Clear,320,2013-10-23 06:53:00
2:53 AM,54.0,50.0,86,30.07,10.0,NW,4.6,-,N/A,,Clear,310,2013-10-23 07:53:00
3:53 AM,54.0,50.0,86,30.07,10.0,WNW,3.5,-,N/A,,Clear,300,2013-10-23 08:53:00
4:53 AM,52.0,50.0,93,30.07,10.0,Calm,Calm,-,N/A,,Clear,0,2013-10-23 09:53:00
5:53 AM,51.1,50.0,96,30.09,9.0,Calm,Calm,-,N/A,,Clear,0,2013-10-23 10:53:00
6:53 AM,51.1,48.9,92,30.10,9.0,Calm,Calm,-,N/A,,Clear,0,2013-10-23 11:53:00
7:53 AM,51.1,48.9,92,30.12,8.0,SW,3.5,-,N/A,,Clear,230,2013-10-23 12:53:00
8:53 AM,57.9,53.1,84,30.14,10.0,SW,4.6,-,N/A,,Clear,220,2013-10-23 13:53:00
9:53 AM,64.0,53.1,67,30.15,10.0,Calm,Calm,-,N/A,,Clear,0,2013-10-23 14:53:00
10:53 AM,73.0,52.0,48,30.14,10.0,NNW,4.6,-,N/A,,Clear,330,2013-10-23 15:53:00
11:53 AM,77.0,52.0,42,30.14,10.0,North,5.8,-,N/A,,Clear,360,2013-10-23 16:53:00
12:53 PM,79.0,50.0,36,30.12,10.0,NNE,4.6,-,N/A,,Clear,20,2013-10-23 17:53:00
1:53 PM,80.1,46.9,31,30.10,10.0,Variable,4.6,-,N/A,,Clear,0,2013-10-23 18:53:00
2:53 PM,81.0,46.0,29,30.08,10.0,North,8.1,-,N/A,,Clear,360,2013-10-23 19:53:00
3:53 PM,81.0,46.0,29,30.08,10.0,North,6.9,-,N/A,,Clear,360,2013-10-23 20:53:00
4:53 PM,80.1,46.0,30,30.09,10.0,NNE,6.9,-,N/A,,Clear,20,2013-10-23 21:53:00
5:53 PM,78.1,46.0,32,30.09,10.0,NNE,4.6,-,N/A,,Clear,30,2013-10-23 22:53:00
6:53 PM,69.1,51.1,53,30.09,10.0,Calm,Calm,-,N/A,,Clear,0,2013-10-23 23:53:00
7:53 PM,62.1,53.1,72,30.11,10.0,Calm,Calm,-,N/A,,Clear,0,2013-10-24 00:53:00
8:53 PM,61.0,53.1,75,30.12,10.0,South,3.5,-,N/A,,Clear,170,2013-10-24 01:53:00
9:53 PM,62.1,57.0,84,30.12,10.0,Calm,Calm,-,N/A,,Clear,0,2013-10-24 02:53:00
10:53 PM,59.0,55.9,90,30.13,10.0,Calm,Calm,-,N/A,,Clear,0,2013-10-24 03:53:00
11:53 PM,57.9,55.9,93,30.13,10.0,Calm,Calm,-,N/A,,Clear,0,2013-10-24 04:53:00